Weather History for Lander, WY

Change the Weather History Date:

Thursday, July 18, 2013

  Actual Average Record
Temperature  
Mean Temperature 79 °F 72 °F  
Max Temperature 95 °F 88 °F 100 °F (1998)
Min Temperature 62 °F 56 °F 40 °F (1904)
Degree Days  
Heating Degree Days 0 0  
Month to date heating degree days 0 11  
Since 1 June heating degree days 54 137  
Since 1 July heating degree days 0 11  
Cooling Degree Days 14 7  
Month to date cooling degree days 183 110  
Year to date cooling degree days 306 179  
Since 1 June cooling degree days 297 174  
Growing Degree Days 28 (Base 50)    
Moisture  
Dew Point 45 °F    
Average Humidity 37    
Maximum Humidity 63    
Minimum Humidity 11    
Precipitation  
Precipitation 0.00 in 0.03 in 0.97 in (1911)
Month to date precipitation 0.27 0.39  
Year to date precipitation 7.84 7.88  
Snow  
Snow 0.00 in 0.00 in - ()
Month to date snowfall 0.0 0.0  
Since 1 June snowfall 0.0 0.1  
Since 1 July snowfall 0.0 0.0  
Snow Depth 0.00 in    
Sea Level Pressure  
Sea Level Pressure 29.95 in    
Wind  
Wind Speed 5 mph (WNW)    
Max Wind Speed 22 mph    
Max Gust Speed 29 mph    
Visibility 10 miles    
Events      
T = Trace of Precipitation, MM = Missing Value Source: NWS Daily Summary

Daily Weather History Graph

Daily Weather History Graph

Search for Another Location

Airport:

Trip Planner

Search our weather history database for the weather conditions in past years. The results will help you decide how hot, cold, wet, or windy it might be!

Date:

Astronomy

Jul. 18, 2013 Rise Set
Actual Time 5:52 AM MDT 8:48 PM MDT
Civil Twilight 5:19 AM MDT 9:22 PM MDT
Nautical Twilight 4:36 AM MDT 10:05 PM MDT
Astronomical Twilight 3:46 AM MDT 10:54 PM MDT
Moon 4:48 PM MDT (7/18) 1:47 AM MDT (7/18)
Length of Visible Light 16h 03m
Length of Day
14h 56m
Waxing Gibbous, 78% of the Moon is Illuminated
Jul 18
Waxing Gibbous
Jul 22
Full
Jul 29
Last Quarter
Aug 6
New
Aug 14
First Quarter

Hourly Weather History & Observations

Time (MDT) Temp. Dew Point Humidity Pressure Visibility Wind Dir Wind Speed Gust Speed Precip Events Conditions
12:53 AM 75.0 °F 48.9 °F 40% 29.99 in 10.0 mi North 6.9 mph - N/A   Clear
1:53 AM 69.1 °F 53.1 °F 57% 30.04 in 10.0 mi NNW 6.9 mph - N/A   Mostly Cloudy
2:53 AM 66.9 °F 53.1 °F 61% 30.03 in 10.0 mi West 5.8 mph - N/A   Clear
3:53 AM 68.0 °F 51.1 °F 55% 30.00 in 10.0 mi SW 5.8 mph - N/A   Clear
4:53 AM 66.9 °F 51.1 °F 57% 29.99 in 10.0 mi WSW 6.9 mph - N/A   Clear
5:53 AM 66.0 °F 51.1 °F 59% 30.00 in 10.0 mi Calm Calm - N/A   Clear
6:53 AM 64.9 °F 48.9 °F 56% 30.01 in 10.0 mi SSW 4.6 mph - N/A   Mostly Cloudy
7:53 AM 66.0 °F 51.1 °F 59% 30.02 in 10.0 mi West 3.5 mph - N/A   Partly Cloudy
8:53 AM 75.0 °F 50.0 °F 41% 30.01 in 10.0 mi Calm Calm - N/A   Clear
9:53 AM 79.0 °F 52.0 °F 39% 30.01 in 10.0 mi Calm Calm - N/A   Clear
10:53 AM 82.9 °F 50.0 °F 32% 29.97 in 10.0 mi SSE 3.5 mph - N/A   Clear
11:53 AM 84.9 °F 48.9 °F 29% 29.95 in 10.0 mi Calm Calm - N/A   Clear
12:53 PM 90.0 °F 41.0 °F 18% 29.92 in 10.0 mi Calm Calm - N/A   Clear
1:53 PM 91.0 °F 42.1 °F 18% 29.91 in 10.0 mi Variable 4.6 mph - N/A   Clear
2:53 PM 93.0 °F 41.0 °F 16% 29.89 in 10.0 mi NNW 9.2 mph - N/A   Clear
3:53 PM 93.0 °F 39.9 °F 16% 29.87 in 10.0 mi North 6.9 mph - N/A   Clear
4:53 PM 91.9 °F 37.0 °F 15% 29.85 in 10.0 mi WNW 5.8 mph - N/A   Clear
5:53 PM 93.9 °F 30.9 °F 11% 29.85 in 10.0 mi Variable 4.6 mph - N/A   Clear
6:53 PM 91.0 °F 30.9 °F 12% 29.85 in 10.0 mi NNW 10.4 mph - N/A   Clear
7:53 PM 87.1 °F 33.1 °F 15% 29.87 in 10.0 mi North 8.1 mph - N/A   Clear
8:53 PM 81.0 °F 37.0 °F 21% 29.89 in 10.0 mi West 5.8 mph - N/A   Clear
9:53 PM 77.0 °F 41.0 °F 28% 29.94 in 10.0 mi West 9.2 mph - N/A   Clear
10:53 PM 77.0 °F 46.9 °F 34% 29.97 in 10.0 mi NW 8.1 mph - N/A   Partly Cloudy
11:53 PM 75.9 °F 46.9 °F 36% 29.99 in 10.0 mi NNW 5.8 mph - N/A   Partly Cloudy